[[{"header":{"parameterUnit":"m.s-1","parameterCategory":1,"la1":30.2991,"la2":30.254,"lo1":-89.0895,"lo2":-89.0444,"dy":0.0017,"dx":0.0017,"nx":28,"ny":28,"refTime":"2024-03-04T09:00:00:Z","depth":0,"parameterNumber":2,"parameterNumberName":"U-component_of_WINDS"},"data":[0,0,0,0,0,0,0,0,0,0,0,0,0,0,0,0,0,0,0,0,0,0,0,0,0,0,0,0,0,0,0,0,0,0,0,0,0,0,0,0,0,0,0,0,0,0,0,0,0,0,0,0,0,0,0,0,0,0,2.9558,2.9559,0,2.9608,2.9609,2.9609,2.9567,2.9565,2.9563,2.9562,2.9608,2.961,2.9613,0,0,0,0,0,0,0,0,0,0,0,0,0,2.942,2.9423,2.9558,2.9559,2.9559,2.9608,2.9609,2.9609,2.9567,2.9565,2.9563,2.9561,2.9607,2.961,2.9614,0,0,0,0,0,0,0,0,0,0,0,0,0,2.9476,2.9423,2.9558,2.9544,2.9544,2.9608,2.9609,2.961,2.9567,2.9565,2.9562,2.956,2.9606,2.961,2.9614,2.9693,0,0,2.9627,2.9629,0,0,0,0,0,0,0,0,2.9473,2.9481,2.9546,2.9545,2.9545,2.9579,2.9577,2.9637,2.9568,2.9558,2.9561,2.9558,2.96,2.9604,2.9619,2.9695,2.9697,2.9627,2.963,2.9632,2.9633,0,0,0,0,0,0,0,2.9469,2.9478,2.9578,2.9547,2.9546,2.9533,2.9539,2.9588,2.9593,2.9559,2.9556,2.9563,2.9599,2.9615,2.962,2.9698,2.9627,2.9631,2.9634,2.9636,2.984,2.9843,0,0,0,0,0,0,2.9467,2.9476,2.9576,2.9579,2.9502,2.9538,2.9544,2.957,2.9592,2.9593,2.9565,2.9561,2.9609,2.9615,2.9622,2.9716,2.9632,2.9636,2.9638,2.9838,2.9841,2.9844,0,0,0,0,0,0,2.9464,2.9477,2.9574,2.9527,2.9538,2.9543,2.9573,2.9573,2.9589,2.9597,2.9597,2.9581,2.9607,2.9616,2.9676,2.9717,2.9638,2.9642,2.9834,2.9839,2.9843,2.9906,0,0,0,0,0,0,2.9461,2.9476,2.9508,2.9528,2.9541,2.963,2.9576,2.9576,2.9597,2.9592,2.9612,2.9613,2.9606,2.967,2.968,2.9722,2.9645,2.9831,2.9836,2.9841,2.99,2.9912,2.9922,0,0,0,0,0,2.9456,2.9522,2.9509,2.9522,2.9581,2.9632,2.964,2.9632,2.9601,2.9632,2.9636,2.9612,2.971,2.9676,2.9688,2.9731,2.9828,2.9835,2.9841,2.9895,2.9909,2.9921,0,0,0,0,0,0,2.9505,2.9525,2.9511,2.9586,2.9608,2.9625,2.9664,2.9647,2.9677,2.967,2.9657,2.9662,2.9726,2.9734,2.9696,2.9808,2.9764,2.9773,2.9801,2.9815,2.9825,2.9823,2.9649,0,0,0,0,0,2.9525,2.9567,2.9581,2.9646,2.9658,2.9659,2.9681,2.9673,2.9694,2.9703,2.9712,2.9733,2.9768,2.9791,2.9824,2.99,2.9904,2.9935,2.9946,2.9955,2.9963,3.0004,3.0018,2.9865,2.9865,2.9865,0,0,2.9566,2.9582,2.9609,2.9656,2.9672,2.9714,2.9667,2.9714,2.9744,2.9709,2.9768,2.9775,2.9797,2.9865,2.9896,2.9874,3.0006,2.9963,2.997,2.9974,3.0012,3.0026,3.0039,2.987,2.9869,2.9868,0,0,2.9663,2.9679,2.9736,2.9753,2.9778,2.9779,2.9792,2.9811,2.9816,2.9874,2.9849,2.9883,2.9945,2.9961,2.9978,3.008,3.0058,3.009,3.0147,3.0187,3.0199,3.0209,3.0246,3.026,3.0098,3.0098,3.0098,0,2.9711,2.9775,2.9766,2.9815,2.9836,2.9807,2.9863,2.988,2.9914,2.9928,2.9903,2.9979,2.9992,3.0064,3.0089,3.0103,3.0117,3.0089,3.0198,3.0209,3.0218,3.0253,3.0267,3.0102,3.0102,3.0101,3.0101,0,2.9833,2.9877,2.9919,2.9955,2.998,3.0032,3.0029,3.0056,3.0045,3.0047,3.0106,3.012,3.0155,3.0171,3.016,3.0241,3.0227,3.02,3.0156,3.0237,3.027,3.0283,3.0108,3.0106,3.0105,3.0104,0,0,2.9964,2.9994,3.0009,3.0025,3.005,3.0084,3.0133,3.0169,3.0192,3.0216,3.0257,3.0309,3.0284,3.0303,3.0293,3.0327,3.0408,3.0296,3.0296,3.0317,3.0498,3.052,3.0535,3.0393,3.0396,3.0398,3.0497,0,3.0063,3.0152,3.0145,3.0228,3.0269,3.0241,3.0284,3.0303,3.0306,3.034,3.0341,3.0379,3.0344,3.0355,3.0388,3.0391,3.0444,3.0383,3.043,3.0432,3.0428,3.0552,3.0575,3.0668,3.0509,3.0512,3.0513,0,3.0191,3.0221,3.0309,3.0328,3.0345,3.0384,3.0416,3.0449,3.0469,3.0468,3.0489,3.0473,3.0521,3.0474,3.054,3.0499,3.0517,3.0522,3.0525,3.053,3.0479,3.0562,3.0698,3.0712,3.0533,3.0531,3.053,0,3.0279,3.0341,3.0402,3.0416,3.044,3.0468,3.0478,3.0496,3.0518,3.0545,3.0559,3.059,3.0608,3.0632,3.0624,3.0591,3.0691,3.0644,3.0692,3.0692,3.0716,3.0715,3.0858,3.0725,3.0725,3.0725,3.0724,0,3.0391,3.0447,3.0442,3.048,3.0541,3.053,3.0589,3.0596,3.0612,3.0649,3.0625,3.066,3.0647,3.0681,3.0675,3.073,3.0738,3.0738,3.0736,3.0741,3.0742,3.0754,3.0748,3.0728,3.0728,3.0727,3.0726,0,3.0501,3.0501,3.0565,3.0582,3.0587,3.0631,3.0645,3.0679,3.0679,3.0727,3.0737,3.0737,3.0775,3.077,3.0812,3.0807,3.0877,3.0866,3.0871,3.0869,3.0918,3.0914,3.1075,3.1096,3.0949,3.095,3.0951,0,3.0574,3.0616,3.0637,3.0662,3.0675,3.0713,3.0736,3.0726,3.075,3.0776,3.0807,3.0843,3.0872,3.0934,3.0937,3.0969,3.0959,3.1014,3.0964,3.0968,3.0962,3.096,3.0964,3.1024,3.1026,3.1027,3.1028,0,3.0703,3.0701,3.0735,3.077,3.0798,3.0824,3.0847,3.0867,3.0859,3.0887,3.0927,3.0949,3.0992,3.1029,3.1058,3.1067,3.1046,3.1043,3.1056,3.1063,3.1065,3.1066,3.0899,3.104,3.1039,3.1038,3.1038,3.1037,3.0797,3.0834,3.0855,3.0893,3.091,3.0932,3.0966,3.0971,3.1004,3.104,3.1031,3.1076,3.1093,3.1131,3.1143,3.1177,3.1157,3.1175,3.118,3.1186,3.1192,3.1058,3.1182,3.1182,3.1181,3.1181,3.1181,0,3.0926,3.0938,3.0974,3.1009,3.1039,3.1017,3.1042,3.1068,3.1109,3.1127,3.1156,3.1201,3.1236,3.1242,3.1274,3.13,3.1291,3.1309,3.1308,3.131,3.1208,3.1194,3.1316,3.1316,3.1316,3.1316,3.1316,3.1316,3.0997,3.1058,3.1057,3.1125,3.1136,3.1181,3.1197,3.1217,3.1232,3.1284,3.1313,3.1317,3.133,3.1363,3.1394,3.1394,3.1408,3.1429,3.1426,3.1331,3.1317,3.1305,3.1292,3.1432,3.1432,3.1526,3.1527,3.1528]},{"header":{"parameterUnit":"m.s-1","parameterCategory":1,"la1":30.2991,"la2":30.254,"lo1":-89.0895,"lo2":-89.0444,"dy":0.0017,"dx":0.0017,"nx":28,"ny":28,"refTime":"2024-03-04T09:00:00:Z","depth":0,"parameterNumber":3,"parameterNumberName":"V-component_of_WINDS"},"data":[0,0,0,0,0,0,0,0,0,0,0,0,0,0,0,0,0,0,0,0,0,0,0,0,0,0,0,0,0,0,0,0,0,0,0,0,0,0,0,0,0,0,0,0,0,0,0,0,0,0,0,0,0,0,0,0,0,0,5.0496,5.0494,0,5.0318,5.0316,5.0314,5.0107,5.0104,5.0101,5.0098,4.9911,4.9909,4.9907,0,0,0,0,0,0,0,0,0,0,0,0,0,5.0651,5.0649,5.0496,5.0494,5.0492,5.0319,5.0316,5.0314,5.0108,5.0104,5.01,5.0097,4.9912,4.991,4.9907,0,0,0,0,0,0,0,0,0,0,0,0,0,5.054,5.0648,5.0496,5.0368,5.0355,5.0319,5.0316,5.0313,5.0109,5.0104,5.0099,5.0095,4.9913,4.991,4.9907,4.9982,0,0,4.9897,4.9896,0,0,0,0,0,0,0,0,5.0546,5.0534,5.0389,5.0377,5.0362,5.023,5.0302,5.0202,5.011,5.0202,5.0098,5.0092,5.0021,5.0009,4.9986,4.9973,4.9965,4.9897,4.9895,4.9894,4.9893,0,0,0,0,0,0,0,5.0554,5.054,5.0425,5.0387,5.0371,5.0317,5.0296,5.0282,5.014,5.0194,5.0178,5.016,5.0013,4.9989,4.998,4.9962,4.9897,4.9895,4.9893,4.9891,5.0002,5.0006,0,0,0,0,0,0,5.0582,5.0548,5.0431,5.042,5.0444,5.0319,5.0295,5.0277,5.0139,5.0114,5.0164,5.0151,4.9997,4.9983,4.9972,5.0052,4.9894,4.9891,4.9889,4.9997,5.0003,5.0008,0,0,0,0,0,0,5.0586,5.0573,5.0438,5.048,5.0459,5.0321,5.0302,5.0276,5.0252,5.0117,5.009,5.0167,4.9992,4.9977,4.9981,5.0043,4.989,4.9887,4.9991,4.9999,5.0005,5.0213,0,0,0,0,0,0,5.0591,5.0576,5.0605,5.0482,5.0457,5.0453,5.0306,5.0276,5.0248,5.0229,5.0113,5.0089,4.9987,4.9987,4.9978,5.0036,4.9885,4.9985,4.9995,5.0003,5.02,5.0226,5.0249,0,0,0,0,0,5.0598,5.0669,5.0608,5.0595,5.0491,5.0457,5.0443,5.0326,5.0254,5.0281,5.0194,5.0093,5.0037,4.9989,4.9978,5.0035,4.9981,4.9992,5.0002,5.0189,5.0221,5.0248,0,0,0,0,0,0,5.0802,5.0651,5.0581,5.0615,5.0551,5.0422,5.0453,5.0363,5.0317,5.0301,5.0156,5.0131,5.0154,5.0093,5.0044,5.01,4.9994,5.0003,5.014,5.0169,5.0193,5.0209,4.9882,0,0,0,0,0,5.0851,5.0838,5.0705,5.0749,5.072,5.0593,5.0573,5.0489,5.0416,5.0387,5.03,5.0231,5.0198,5.0179,5.0141,5.0188,5.016,5.0222,5.0246,5.0267,5.0278,5.0299,5.0325,5.0043,5.0043,5.0043,0,0,5.0952,5.0868,5.0869,5.0788,5.0728,5.0717,5.0571,5.0565,5.0555,5.0385,5.0386,5.0319,5.0232,5.026,5.0267,5.021,5.0348,5.0281,5.0298,5.0297,5.0313,5.034,5.0364,5.005,5.0049,5.0048,0,0,5.1132,5.1067,5.1096,5.1039,5.095,5.0865,5.0872,5.0756,5.0707,5.0705,5.0578,5.0561,5.0507,5.0451,5.0415,5.0572,5.0477,5.0562,5.0692,5.0714,5.0736,5.0755,5.0813,5.0836,5.0573,5.0573,5.0573,0,5.1269,5.1249,5.1122,5.1125,5.1093,5.0939,5.0967,5.0917,5.082,5.0801,5.0738,5.0667,5.0598,5.061,5.0649,5.0624,5.0627,5.0578,5.0744,5.0761,5.0777,5.0831,5.0853,5.0584,5.0583,5.0582,5.0581,0,5.1423,5.141,5.1444,5.1357,5.1328,5.1343,5.1218,5.1203,5.112,5.1041,5.104,5.095,5.0892,5.0887,5.0806,5.0888,5.0856,5.0771,5.0662,5.0818,5.0866,5.0885,5.0601,5.0596,5.0593,5.059,0,0,5.1731,5.1572,5.1587,5.1546,5.1435,5.1422,5.1429,5.1373,5.1365,5.1301,5.1304,5.126,5.1181,5.114,5.105,5.1069,5.1201,5.098,5.0976,5.1028,5.1288,5.1357,5.1383,5.1136,5.1139,5.1142,5.1297,0,5.1893,5.19,5.1785,5.1823,5.181,5.1662,5.1667,5.16,5.1525,5.1501,5.1416,5.1389,5.1284,5.1259,5.1271,5.1183,5.1252,5.1169,5.1138,5.1138,5.1169,5.1407,5.148,5.1631,5.1314,5.1317,5.1319,0,5.2085,5.2036,5.2074,5.1961,5.1951,5.196,5.1899,5.1878,5.1797,5.174,5.1696,5.1592,5.1589,5.1483,5.1477,5.1424,5.1402,5.1357,5.1359,5.1356,5.1242,5.1413,5.1675,5.17,5.1347,5.1345,5.1343,0,5.2311,5.2252,5.2267,5.2235,5.2104,5.2114,5.2059,5.1973,5.1947,5.1892,5.1874,5.1819,5.179,5.1749,5.1633,5.1566,5.1641,5.1525,5.1595,5.1598,5.1621,5.1622,5.1888,5.1601,5.1601,5.1601,5.16,0,5.2507,5.2537,5.2367,5.2377,5.2405,5.227,5.23,5.223,5.2155,5.2147,5.2013,5.2009,5.1854,5.1831,5.1739,5.1749,5.1736,5.169,5.1667,5.1705,5.1712,5.1693,5.1681,5.1606,5.1605,5.1604,5.1603,0,5.2766,5.2653,5.266,5.2535,5.2504,5.2531,5.2422,5.2425,5.234,5.2333,5.2322,5.2189,5.2155,5.2035,5.197,5.1908,5.1948,5.1899,5.1978,5.1963,5.2041,5.2037,5.2307,5.2337,5.2029,5.2032,5.2034,0,5.2902,5.2922,5.2799,5.2785,5.2737,5.2716,5.2688,5.2554,5.2531,5.244,5.2454,5.2409,5.2367,5.2319,5.2216,5.2165,5.2116,5.2214,5.2108,5.2147,5.2122,5.2125,5.2126,5.2239,5.2243,5.2247,5.2249,0,5.3156,5.3098,5.3066,5.3013,5.2985,5.2937,5.288,5.2875,5.2726,5.2706,5.2671,5.2638,5.2573,5.2531,5.2463,5.2403,5.2303,5.2283,5.2297,5.2339,5.2386,5.2365,5.2045,5.2278,5.2275,5.2273,5.2272,5.2271,5.3359,5.337,5.3286,5.3253,5.3197,5.3147,5.3144,5.3059,5.3028,5.2966,5.2887,5.2862,5.2777,5.2677,5.2625,5.2601,5.2546,5.2566,5.2571,5.258,5.26,5.2385,5.2588,5.2587,5.2586,5.2585,5.2584,0,5.361,5.3547,5.3519,5.3445,5.3419,5.3325,5.3257,5.3241,5.3222,5.3152,5.3113,5.3073,5.303,5.2922,5.2869,5.2871,5.2824,5.2862,5.2863,5.2852,5.2651,5.2646,5.2902,5.2902,5.2902,5.2902,5.2902,5.2902,5.3737,5.3752,5.3684,5.3668,5.3604,5.358,5.355,5.3503,5.3447,5.3408,5.3373,5.3303,5.3217,5.3156,5.3113,5.3082,5.307,5.3125,5.308,5.2896,5.2865,5.2837,5.2832,5.3123,5.3123,5.3283,5.3284,5.3285]}]]